Location: Arena
(42.5007°N, 9.4650°E)
Time: 22:00:43
(UTC+00:00)

STARLINK-1233 - Pass Details

Date: 09 April 2020
Orbit: 549 x 551 km, 53.0° (Epoch: 26 May)

Event Time Altitude Azimuth Distance (km) Brightness Sun altitude
Rises 19:47:58 0° 303° (WNW) 2,734 8.8 -19.7°
Reaches altitude 10° 19:50:15 10° 299° (WNW) 1,837 7.5 -20.0°
Maximum altitude 19:54:19 54° 222° (SW) 679 4.0 -20.7°
Enters shadow 19:55:04 46° 183° (S) 749 4.0 -20.8°
